TimePST,TemperatureF,Dew PointF,Humidity,Sea Level PressureIn,VisibilityMPH,Wind Direction,Wind SpeedMPH,Gust SpeedMPH,PrecipitationIn,Events,Conditions,WindDirDegrees,DateUTC
12:56 AM,44.1,19.0,37,30.30,10.0,West,9.2,-,N/A,,Clear,260,2013-01-17 08:56:00
1:56 AM,42.1,19.9,41,30.30,10.0,West,6.9,-,N/A,,Clear,260,2013-01-17 09:56:00
2:56 AM,39.0,18.0,43,30.29,10.0,West,5.8,-,N/A,,Clear,260,2013-01-17 10:56:00
3:56 AM,39.0,19.9,46,30.28,10.0,WSW,6.9,-,N/A,,Clear,240,2013-01-17 11:56:00
4:56 AM,36.0,19.0,50,30.28,10.0,West,4.6,-,N/A,,Clear,270,2013-01-17 12:56:00
5:56 AM,39.9,19.9,45,30.29,10.0,West,9.2,-,N/A,,Clear,260,2013-01-17 13:56:00
6:56 AM,41.0,19.0,41,30.30,10.0,West,8.1,-,N/A,,Clear,270,2013-01-17 14:56:00
7:56 AM,44.1,23.0,43,30.33,10.0,WSW,6.9,-,N/A,,Clear,250,2013-01-17 15:56:00
8:56 AM,52.0,23.0,32,30.35,10.0,WSW,4.6,-,N/A,,Clear,250,2013-01-17 16:56:00
9:56 AM,59.0,25.0,27,30.34,10.0,West,3.5,-,N/A,,Clear,280,2013-01-17 17:56:00
11:56 AM,68.0,19.0,15,30.27,10.0,Variable,3.5,-,N/A,,Clear,0,2013-01-17 19:56:00
12:56 PM,70.0,17.1,13,30.23,10.0,NNW,6.9,-,N/A,,Clear,330,2013-01-17 20:56:00
1:56 PM,71.1,16.0,12,30.22,10.0,Variable,3.5,-,N/A,,Clear,0,2013-01-17 21:56:00
2:56 PM,71.1,17.1,13,30.21,10.0,Variable,3.5,-,N/A,,Clear,0,2013-01-17 22:56:00
3:56 PM,71.1,18.0,13,30.21,10.0,ENE,3.5,-,N/A,,Clear,60,2013-01-17 23:56:00
4:56 PM,66.9,18.0,15,30.22,10.0,Calm,Calm,-,N/A,,Clear,0,2013-01-18 00:56:00
5:56 PM,61.0,19.9,21,30.23,10.0,Calm,Calm,-,N/A,,Clear,0,2013-01-18 01:56:00
6:56 PM,57.0,21.0,25,30.24,10.0,Calm,Calm,-,N/A,,Clear,0,2013-01-18 02:56:00
7:56 PM,52.0,21.0,30,30.25,10.0,West,9.2,-,N/A,,Clear,260,2013-01-18 03:56:00
8:56 PM,50.0,17.1,27,30.24,10.0,West,9.2,-,N/A,,Clear,260,2013-01-18 04:56:00
9:56 PM,48.9,17.1,28,30.23,10.0,West,10.4,-,N/A,,Clear,260,2013-01-18 05:56:00
10:56 PM,46.9,18.0,32,30.23,10.0,North,-9999.0,-,N/A,,Clear,0,2013-01-18 06:56:00
11:56 PM,45.0,17.1,33,30.23,10.0,WNW,5.8,-,N/A,,Clear,290,2013-01-18 07:56:00